sat.trackr.live / text

‹ back to catalog

STARLINK-34080

NORAD 64116 · 2025-110W

PAYLOAD ACTIVE UNKNOWN

§ Identity

Operator
Country
US
Launch date
2025-05-23
Launch site
AFWTR
Launch vehicle
Mass (kg)
RCS (m²)

Purposes: comms

External: N2YO · Heavens-Above · Gunter

§ Orbital elements

Epoch: 2026-05-25T00:08:06.451008Z

Period
94.01 min
Inclination
53.1601°
Eccentricity
0.0001039
Mean motion
15.31716244 rev/d
Perigee alt
470.0 km
Apogee alt
471.4 km
Semi-major
6,848.8 km
B*
4.8110e-4
RAAN
31.7964°
Arg perigee
97.7251°
Mean anomaly
262.3868°
Rev number
5,756

§ Raw data

STARLINK-340801 64116U 25110W   26145.00563022  .00014601  00000+0  48110-3 0  99912 64116  53.1601  31.7964 0001039  97.7251 262.3868 15.31716244 57562

JSON: /api/v1/satellites/64116 · /tle

For live sub-satellite position, see the globe view (requires WebGL).

§ Visibility from observer

Set your observer location to see the next 7 days of passes ≥ 10°. The values pass through the URL so the page stays shareable.

No JS? Fill the form by hand. The geolocation button needs JavaScript.